CW9688 Weather Reports


time (UTC)temp
F
wind
direction
speed
knots
gust
knots
rain 1hr
in
rain 24hr
in
rain mn
in
humidity
%
barometer
mb
20260905220304 93 40 0.9 1.7 0.00 0.00 0.00 20 1012.9
20260905215805 91 40 0.9 2.6 0.00 0.00 0.00 20 1012.9
20260905214804 93 282 2.6 7.8 0.00 0.00 0.00 21 1012.9
20260905213804 92 267 4.3 6.1 0.00 0.00 0.00 19 1012.9
20260905212804 92 35 3.5 6.1 0.00 0.00 0.00 22 1012.9
20260905211305 93 32 5.2 11.3 0.00 0.00 0.00 20 1012.9
20260905210804 93 45 6.1 10.4 0.00 0.00 0.00 20 1012.9
20260905210304 93 88 3.5 10.4 0.00 0.00 0.00 24 1012.9
20260905205306 92 22 6.1 13.0 0.00 0.00 0.00 20 1012.9
20260905204804 93 345 2.6 7.0 0.00 0.00 0.00 19 1012.9
20260905203304 93 30 2.6 7.8 0.00 0.00 0.00 22 1012.9
20260905202805 93 347 7.0 11.3 0.00 0.00 0.00 20 1012.9
20260905202306 93 335 5.2 10.4 0.00 0.00 0.00 23 1012.9
20260905201804 93 28 6.1 10.4 0.00 0.00 0.00 21 1012.9
20260905195805 92 45 5.2 10.4 0.00 0.00 0.00 22 1012.9
20260905192805 91 22 2.6 8.7 0.00 0.00 0.00 22 1012.9
20260905192306 90 65 4.3 10.4 0.00 0.00 0.00 23 1012.9
20260905185804 90 114 6.1 10.4 0.00 0.00 0.00 25 1012.9
20260905185306 89 68 5.2 8.7 0.00 0.00 0.00 23 1012.9
20260905184805 88 19 4.3 10.4 0.00 0.00 0.00 25 1012.9
20260905184304 88 54 6.1 13.9 0.00 0.00 0.00 24 1012.9
20260905182804 88 28 2.6 10.4 0.00 0.00 0.00 27 1012.9
20260905182306 88 64 6.1 10.4 0.00 0.00 0.00 27 1012.9
20260905181804 86 40 4.3 10.4 0.00 0.00 0.00 26 1013.3
20260905180804 88 87 2.6 7.0 0.00 0.00 0.00 26 1013.3
20260905175306 86 25 1.7 7.0 0.00 0.00 0.00 28 1013.3
20260905174804 86 85 5.2 8.7 0.00 0.00 0.00 27 1013.3
20260905173804 85 70 3.5 7.0 0.00 0.00 0.00 30 1013.3
20260905173304 85 50 4.3 7.0 0.00 0.00 0.00 31 1013.3
20260905171804 85 67 4.3 6.1 0.00 0.00 0.00 32 999.9
20260905170804 84 48 4.3 7.0 0.00 0.00 0.00 29 999.8
20260905165306 84 116 5.2 7.0 0.00 0.00 0.00 31 999.9
20260905164305 84 102 4.3 7.8 0.00 0.00 0.00 32 1000.0
20260905163804 82 149 3.5 6.1 0.00 0.00 0.00 33 999.9
20260905163305 82 112 5.2 7.8 0.00 0.00 0.00 34 999.9
20260905162805 82 89 4.3 6.1 0.00 0.00 0.00 32 999.9
20260905162306 81 58 4.3 6.1 0.00 0.00 0.00 35 999.8
20260905161804 80 93 1.7 5.2 0.00 0.00 0.00 35 999.9
20260905161305 80 136 3.5 6.1 0.00 0.00 0.00 35 999.9
20260905160304 79 124 3.5 5.2 0.00 0.00 0.00 35 999.9
20260905155805 79 104 2.6 6.1 0.00 0.00 0.00 35 999.9
20260905154804 78 96 2.6 4.3 0.00 0.00 0.00 36 999.9
20260905153804 78 55 2.6 5.2 0.00 0.00 0.00 39 1000.0
20260905152804 77 82 2.6 6.1 0.00 0.00 0.00 39 1000.0
20260905150804 76 92 4.3 5.2 0.00 0.00 0.00 41 1000.1
20260905145804 76 171 1.7 5.2 0.00 0.00 0.00 37 1000.1
20260905145306 76 163 1.7 4.3 0.00 0.00 0.00 37 1000.1
20260905144804 75 167 0.9 4.3 0.00 0.00 0.00 39 1000.1
20260905143804 74 168 1.7 4.3 0.00 0.00 0.00 38 1000.2
20260905141804 72 161 0.9 1.7 0.00 0.00 0.00 46 999.9
20260905140804 71 223 0.0 0.0 0.00 0.00 0.00 52 999.8
20260905140304 70 223 0.0 0.9 0.00 0.00 0.00 49 999.7
20260905135306 67 223 0.0 0.9 0.00 0.00 0.00 56 999.7
20260905134805 66 223 0.0 0.9 0.00 0.00 0.00 58 999.6
20260905133304 63 211 0.0 0.0 0.00 0.00 0.00 64 999.6
20260905132804 63 211 0.0 1.7 0.00 0.00 0.00 64 999.6
20260905132306 62 211 0.9 1.7 0.00 0.00 0.00 60 999.7
20260905131804 62 211 0.9 1.7 0.00 0.00 0.00 61 999.6
20260905130804 61 211 0.0 1.7 0.00 0.00 0.00 63 999.6
20260905125804 60 211 0.9 1.7 0.00 0.00 0.00 64 999.4
20260905123804 60 211 0.0 0.0 0.00 0.00 0.00 64 999.2
20260905122306 61 211 0.0 0.9 0.00 0.00 0.00 61 999.1
20260905121804 61 211 0.9 2.6 0.00 0.00 0.00 61 999.2
20260905121304 61 211 0.9 2.6 0.00 0.00 0.00 62 999.1
20260905120304 61 204 0.0 1.7 0.00 0.00 0.00 63 999.2
20260905115804 61 204 0.0 0.0 0.00 0.00 0.00 64 999.1
20260905115306 61 204 0.0 0.9 0.00 0.00 0.00 64 998.9
20260905114304 61 204 0.9 1.7 0.00 0.00 0.00 64 998.9
20260905112306 60 213 0.9 1.7 0.00 0.00 0.00 65 998.9
20260905111304 61 213 0.0 0.0 0.00 0.00 0.00 63 998.9
20260905110804 61 213 0.0 1.7 0.00 0.00 0.00 63 998.8
20260905110304 61 213 0.0 0.0 0.00 0.00 0.00 63 998.9
20260905105804 61 213 0.0 0.9 0.00 0.00 0.00 62 998.8
20260905104804 62 213 0.9 1.7 0.00 0.00 0.00 62 998.6
20260905104304 61 213 0.0 0.9 0.00 0.00 0.00 62 998.7
20260905103304 62 213 0.9 1.7 0.00 0.00 0.00 61 998.8
20260905102804 62 213 0.0 0.0 0.00 0.00 0.00 60 998.8
20260905101305 62 95 0.0 0.9 0.00 0.00 0.00 59 998.9
20260905100804 62 33 0.0 0.0 0.00 0.00 0.00 60 998.8
20260905100304 62 33 0.0 0.0 0.00 0.00 0.00 60 998.6
20260905095804 62 33 0.0 0.0 0.00 0.00 0.00 59 998.7
20260905095305 63 33 0.0 0.0 0.00 0.00 0.00 58 998.7
20260905094804 63 33 0.0 0.0 0.00 0.00 0.00 59 998.6
20260905094304 64 33 0.0 0.0 0.00 0.00 0.00 57 998.6
20260905092804 64 33 0.9 1.7 0.00 0.00 0.00 54 998.4
20260905092306 65 128 0.9 4.3 0.00 0.00 0.00 52 998.4
20260905091804 66 138 0.9 2.6 0.00 0.00 0.00 51 998.4
20260905091304 65 215 0.0 0.9 0.00 0.00 0.00 51 998.4
20260905085306 67 215 0.9 1.7 0.00 0.00 0.00 49 998.2
20260905084804 67 215 0.0 1.7 0.00 0.00 0.00 49 998.1
20260905083304 67 205 0.9 1.7 0.00 0.00 0.00 48 998.0
20260905082804 67 201 0.9 0.9 0.00 0.00 0.00 47 997.9
20260905082307 68 201 0.9 2.6 0.00 0.00 0.00 47 997.9
20260905081804 69 202 1.7 2.6 0.00 0.00 0.00 46 997.9
20260905081304 69 180 1.7 4.3 0.00 0.00 0.00 46 997.9
20260905080304 69 187 2.6 2.6 0.00 0.00 0.00 46 997.8
20260905075804 69 209 1.7 2.6 0.00 0.00 0.00 46 997.8
20260905075306 69 203 1.7 4.3 0.00 0.00 0.00 47 997.9
20260905074804 68 202 2.6 4.3 0.00 0.00 0.00 49 997.9
20260905073304 68 217 1.7 2.6 0.00 0.00 0.00 51 997.9
20260905072803 68 197 1.7 2.6 0.00 0.00 0.00 51 998.0
20260905072306 68 156 0.0 2.6 0.00 0.00 0.00 51 997.9
20260905064804 69 180 0.9 1.7 0.00 0.00 0.00 50 997.8
20260905063304 69 180 0.0 0.0 0.00 0.00 0.00 51 997.8
20260905060304 70 174 0.9 1.7 0.00 0.00 0.00 48 997.5
20260905055306 71 174 0.0 0.0 0.00 0.00 0.00 46 997.5
20260905054804 72 174 0.0 1.7 0.00 0.00 0.00 46 997.6
20260905053804 73 174 0.0 1.7 0.00 0.00 0.00 44 997.5
20260905053304 74 174 1.7 2.6 0.00 0.00 0.00 43 997.5
20260905052804 74 152 1.7 5.2 0.00 0.00 0.00 42 997.5
20260905052306 74 121 2.6 4.3 0.00 0.00 0.00 42 997.5
20260905051304 73 117 1.7 4.3 0.00 0.00 0.00 42 997.6
20260905050304 72 157 0.0 2.6 0.00 0.00 0.00 42 997.7
20260905045305 73 142 0.9 1.7 0.00 0.00 0.00 42 997.8
20260905044804 73 253 0.0 0.9 0.00 0.00 0.00 41 997.7
20260905044304 73 253 0.0 1.7 0.00 0.00 0.00 40 997.7
20260905043805 74 253 0.9 1.7 0.00 0.00 0.00 40 997.6
20260905042804 75 208 0.0 0.0 0.00 0.00 0.00 38 997.6
20260905041304 77 208 0.9 2.6 0.00 0.00 0.00 35 997.7
20260905040804 77 195 1.7 4.3 0.00 0.00 0.00 35 997.7
20260905035306 77 119 1.7 6.1 0.00 0.00 0.00 35 997.8
20260905034303 76 106 0.9 5.2 0.00 0.00 0.00 35 997.8
20260905033304 77 63 0.0 1.7 0.00 0.00 0.00 34 997.7
20260905032306 78 63 0.9 1.7 0.00 0.00 0.00 33 997.6
20260905031804 78 42 0.9 4.3 0.00 0.00 0.00 33 997.6
20260905031304 78 28 1.7 2.6 0.00 0.00 0.00 33 997.5
20260905025306 80 41 1.7 5.2 0.00 0.00 0.00 30 997.5
20260905024804 80 48 2.6 6.1 0.00 0.00 0.00 30 997.4
20260905023804 80 61 1.7 4.3 0.00 0.00 0.00 31 997.2
20260905023304 81 31 1.7 2.6 0.00 0.00 0.00 30 997.1
20260905022306 82 59 1.7 2.6 0.00 0.00 0.00 29 997.1
20260905020804 82 50 0.9 2.6 0.00 0.00 0.00 29 997.1
20260905015803 83 42 0.9 2.6 0.00 0.00 0.00 28 997.0
20260905014803 84 41 0.9 2.6 0.00 0.00 0.00 27 996.9
20260905013804 85 67 2.6 5.2 0.00 0.00 0.00 26 996.9
20260905013304 85 70 2.6 7.0 0.00 0.00 0.00 26 996.9
20260905011804 85 74 2.6 6.1 0.00 0.00 0.00 25 996.6
20260905011304 86 67 2.6 5.2 0.00 0.00 0.00 25 996.6
20260905010804 86 61 2.6 5.2 0.00 0.00 0.00 25 996.5
20260905005804 87 87 2.6 7.0 0.00 0.00 0.00 25 996.4
20260905004804 87 64 3.5 7.0 0.00 0.00 0.00 24 996.6
20260905004304 88 82 3.5 12.2 0.00 0.00 0.00 24 996.6
20260905003804 88 94 5.2 10.4 0.00 0.00 0.00 24 996.7
20260905002306 89 94 5.2 11.3 0.00 0.00 0.00 24 996.5
20260905001304 89 99 4.3 10.4 0.00 0.00 0.00 23 996.4
20260904235804 90 86 5.2 10.4 0.00 0.00 0.00 23 996.2
20260904235306 90 93 3.5 12.2 0.00 0.00 0.00 23 996.2
20260904233804 90 74 7.8 12.2 0.00 0.00 0.00 22 996.1
20260904233303 91 63 5.2 10.4 0.00 0.00 0.00 22 996.1
20260904232804 91 82 7.8 14.8 0.00 0.00 0.00 21 996.1
20260904230804 91 73 5.2 10.4 0.00 0.00 0.00 21 996.0
20260904225305 92 73 5.2 10.4 0.00 0.00 0.00 21 996.0
20260904223304 92 76 4.3 15.6 0.00 0.00 0.00 20 996.0
20260904222804 91 87 7.0 15.6 0.00 0.00 0.00 20 996.0
20260904222306 92 73 7.0 12.2 0.00 0.00 0.00 19 996.0
20260904221804 92 60 4.3 10.4 0.00 0.00 0.00 19 996.1
20260904221304 93 71 4.3 10.4 0.00 0.00 0.00 19 996.1